Location: Helion Bumpstead
(52.0500°N, 0.4000°E)
Time: 19:38:20
(UTC+00:00)

SL-16 R/B - Pass Details

Date: 15 November 2025
Orbit: 841 x 844 km, 71.0° (Epoch: 14 December)

Event Time Altitude Azimuth Distance (km) Brightness Sun altitude
Exits shadow 05:50:17 - 329° (NNW) 2,713 4.4 -13.4°
Reaches altitude 10° 05:51:59 10° 344° (NNW) 2,477 4.4 -13.2°
Maximum altitude 05:53:32 11° 0° (N) 2,404 4.4 -13.0°
Drops below altitude 10° 05:55:05 10° 16° (NNE) 2,478 4.7 -12.7°
Sets 05:59:49 0° 52° (NE) 3,413 5.9 -12.0°
